[[{"header":{"parameterUnit":"m.s-1","parameterCategory":1,"la1":30.2991,"la2":30.254,"lo1":-89.0895,"lo2":-89.0444,"dy":0.0017,"dx":0.0017,"nx":28,"ny":28,"refTime":"2024-04-19T03:00:00:Z","depth":0,"parameterNumber":2,"parameterNumberName":"U-component_of_WINDS"},"data":[0,0,0,0,0,0,0,0,0,0,0,0,0,0,0,0,0,0,0,0,0,0,0,0,0,0,0,0,0,0,0,0,0,0,0,0,0,0,0,0,0,0,0,0,0,0,0,0,0,0,0,0,0,0,0,0,0,0,0.3118,0.3119,0,0.3239,0.3241,0.3242,0.3307,0.3307,0.3307,0.3308,0.3435,0.3438,0.3442,0,0,0,0,0,0,0,0,0,0,0,0,0,0.2943,0.2946,0.3118,0.3119,0.3121,0.3239,0.3241,0.3243,0.3307,0.3307,0.3307,0.3308,0.3434,0.3438,0.3442,0,0,0,0,0,0,0,0,0,0,0,0,0,0.3037,0.2947,0.3117,0.3167,0.3173,0.3239,0.3241,0.3243,0.3307,0.3307,0.3307,0.3308,0.3433,0.3438,0.3443,0.3469,0,0,0.3458,0.346,0,0,0,0,0,0,0,0,0.3032,0.3044,0.3158,0.3164,0.317,0.3258,0.3226,0.3319,0.3307,0.3256,0.3308,0.3308,0.3376,0.3386,0.3409,0.3475,0.3481,0.3458,0.3461,0.3463,0.3465,0,0,0,0,0,0,0,0.3025,0.3039,0.3166,0.316,0.3167,0.3184,0.3198,0.3244,0.3314,0.3261,0.3266,0.3279,0.338,0.3404,0.3412,0.3483,0.3458,0.3462,0.3465,0.3467,0.3578,0.3578,0,0,0,0,0,0,0.3011,0.3033,0.3162,0.317,0.31,0.3187,0.3202,0.323,0.3314,0.3326,0.3279,0.3282,0.3395,0.3406,0.3417,0.3454,0.3463,0.3468,0.3471,0.3578,0.3578,0.3578,0,0,0,0,0,0,0.3007,0.3021,0.3157,0.3103,0.3121,0.319,0.322,0.3232,0.3256,0.3327,0.334,0.329,0.3396,0.341,0.3456,0.3459,0.347,0.3475,0.3578,0.3578,0.3578,0.3528,0,0,0,0,0,0,0.3001,0.302,0.303,0.3102,0.3124,0.3193,0.3221,0.3234,0.3264,0.3269,0.3341,0.3354,0.3397,0.3448,0.3461,0.3466,0.3478,0.3578,0.3578,0.3578,0.353,0.3526,0.3523,0,0,0,0,0,0.2995,0.3012,0.303,0.3045,0.3138,0.3193,0.3206,0.3254,0.3264,0.3275,0.3321,0.3351,0.3457,0.3452,0.3467,0.3474,0.3578,0.3578,0.3578,0.3531,0.3527,0.3524,0,0,0,0,0,0,0.2939,0.3022,0.3044,0.3084,0.3131,0.3204,0.322,0.3248,0.3294,0.3297,0.3356,0.3372,0.3412,0.3448,0.3441,0.3505,0.3521,0.3524,0.348,0.3477,0.3473,0.3464,0.3482,0,0,0,0,0,0.2931,0.2968,0.3039,0.3068,0.309,0.3151,0.3176,0.321,0.3261,0.3282,0.3331,0.338,0.3424,0.3452,0.3497,0.3535,0.3552,0.3547,0.3544,0.3541,0.3543,0.3566,0.3565,0.3578,0.3578,0.3578,0,0,0.2916,0.2966,0.2985,0.3058,0.3098,0.3136,0.3167,0.3205,0.3234,0.3288,0.3334,0.3371,0.3431,0.3472,0.3493,0.3503,0.3543,0.3541,0.3538,0.3542,0.3566,0.3565,0.3563,0.3578,0.3578,0.3578,0,0,0.2907,0.2948,0.2977,0.3016,0.3076,0.3116,0.3123,0.3192,0.3218,0.3265,0.3306,0.3342,0.3417,0.3457,0.3487,0.3493,0.3523,0.3506,0.349,0.3511,0.351,0.351,0.3512,0.3512,0.3508,0.3508,0.3508,0,0.288,0.2938,0.2988,0.3024,0.3055,0.3104,0.3134,0.317,0.3242,0.3262,0.3272,0.3367,0.341,0.3462,0.3464,0.3486,0.3497,0.3498,0.3506,0.3506,0.3506,0.3509,0.351,0.3505,0.3506,0.3506,0.3506,0,0.2902,0.2941,0.2957,0.3024,0.3057,0.309,0.3146,0.3173,0.3203,0.3242,0.329,0.3343,0.34,0.3414,0.3445,0.3471,0.3475,0.3495,0.3512,0.3502,0.3506,0.3507,0.3502,0.3503,0.3503,0.3504,0,0,0.2862,0.2956,0.2961,0.2992,0.3062,0.3093,0.3128,0.3182,0.3205,0.3253,0.3284,0.3346,0.3364,0.3399,0.3434,0.3453,0.3454,0.3471,0.3473,0.3466,0.3487,0.3471,0.3472,0.3474,0.3475,0.3475,0.3482,0,0.2863,0.2927,0.2974,0.302,0.3057,0.3104,0.3135,0.3182,0.3219,0.3257,0.3299,0.3341,0.3362,0.3383,0.3404,0.345,0.3459,0.345,0.3505,0.3506,0.3488,0.3474,0.3458,0.3462,0.3483,0.3484,0.3484,0,0.2873,0.2918,0.2968,0.3034,0.3051,0.3078,0.3131,0.3166,0.322,0.3246,0.3284,0.332,0.336,0.3373,0.3429,0.3421,0.3447,0.3472,0.3474,0.3481,0.3494,0.3481,0.3464,0.3465,0.3487,0.3486,0.3486,0,0.2839,0.2912,0.2952,0.2977,0.3054,0.3072,0.3105,0.3159,0.3189,0.3235,0.3255,0.3306,0.3334,0.3373,0.3423,0.3428,0.3474,0.3491,0.3497,0.3496,0.3505,0.3504,0.3492,0.352,0.352,0.352,0.352,0,0.2835,0.2864,0.2937,0.2962,0.2996,0.3049,0.3081,0.3118,0.3166,0.3199,0.3243,0.3273,0.3336,0.3374,0.3413,0.3454,0.3466,0.3489,0.3499,0.3485,0.3482,0.3502,0.3504,0.3521,0.3521,0.3521,0.352,0,0.2803,0.2853,0.2899,0.2968,0.2986,0.3008,0.3068,0.3094,0.3133,0.3174,0.3187,0.325,0.3297,0.3349,0.3414,0.344,0.3479,0.3493,0.346,0.3466,0.3469,0.3468,0.347,0.3473,0.3499,0.3498,0.3498,0,0.2797,0.2821,0.2892,0.2917,0.2948,0.2988,0.3018,0.3071,0.3101,0.3164,0.3182,0.3232,0.3275,0.3348,0.34,0.3449,0.3466,0.3463,0.3474,0.3459,0.3466,0.3464,0.3467,0.346,0.346,0.3459,0.3459,0,0.2782,0.2806,0.2847,0.2897,0.2931,0.2973,0.3017,0.3035,0.3097,0.3128,0.3176,0.321,0.3275,0.3325,0.3381,0.3416,0.3448,0.3455,0.3459,0.3445,0.3425,0.3436,0.3452,0.3455,0.3455,0.3455,0.3456,0.3456,0.2764,0.2786,0.284,0.2884,0.2923,0.2963,0.299,0.3033,0.3073,0.313,0.316,0.3207,0.3261,0.3339,0.3373,0.3412,0.3423,0.3428,0.343,0.3431,0.3427,0.3418,0.3423,0.3423,0.3423,0.3423,0.3423,0,0.2751,0.2788,0.2828,0.2888,0.2923,0.2948,0.2998,0.3026,0.3067,0.3114,0.3155,0.321,0.3258,0.3313,0.3365,0.3385,0.3401,0.3397,0.3396,0.3404,0.3414,0.3406,0.3383,0.3383,0.3383,0.3383,0.3383,0.3383,0.2749,0.2789,0.2818,0.2878,0.2915,0.2961,0.2987,0.3024,0.3062,0.3121,0.3161,0.3196,0.3247,0.3302,0.3348,0.3363,0.338,0.3371,0.3391,0.34,0.3403,0.3406,0.3398,0.3375,0.3375,0.3377,0.3377,0.3377]},{"header":{"parameterUnit":"m.s-1","parameterCategory":1,"la1":30.2991,"la2":30.254,"lo1":-89.0895,"lo2":-89.0444,"dy":0.0017,"dx":0.0017,"nx":28,"ny":28,"refTime":"2024-04-19T03:00:00:Z","depth":0,"parameterNumber":3,"parameterNumberName":"V-component_of_WINDS"},"data":[0,0,0,0,0,0,0,0,0,0,0,0,0,0,0,0,0,0,0,0,0,0,0,0,0,0,0,0,0,0,0,0,0,0,0,0,0,0,0,0,0,0,0,0,0,0,0,0,0,0,0,0,0,0,0,0,0,0,3.148,3.1479,0,3.1391,3.139,3.1389,3.1382,3.1383,3.1384,3.1385,3.1284,3.1281,3.1277,0,0,0,0,0,0,0,0,0,0,0,0,0,3.1635,3.1632,3.148,3.1479,3.1478,3.1391,3.139,3.1389,3.1381,3.1383,3.1384,3.1385,3.1285,3.1281,3.1277,0,0,0,0,0,0,0,0,0,0,0,0,0,3.1558,3.1631,3.148,3.1464,3.1462,3.1392,3.139,3.1388,3.1381,3.1383,3.1384,3.1386,3.1287,3.1281,3.1276,3.1213,0,0,3.126,3.1257,0,0,0,0,0,0,0,0,3.1563,3.1553,3.1467,3.1465,3.1462,3.1399,3.1408,3.1329,3.1381,3.1411,3.1385,3.1386,3.1321,3.1312,3.1292,3.1209,3.1204,3.1259,3.1256,3.1254,3.1252,0,0,0,0,0,0,0,3.1568,3.1557,3.1444,3.1466,3.1463,3.1458,3.1449,3.1393,3.1358,3.1409,3.1408,3.1398,3.1319,3.1297,3.129,3.1203,3.1259,3.1255,3.1251,3.1249,3.1063,3.1061,0,0,0,0,0,0,3.1578,3.1561,3.1447,3.1442,3.1518,3.1454,3.1444,3.1418,3.1359,3.1352,3.1397,3.1398,3.1306,3.1296,3.1286,3.1209,3.1254,3.1249,3.1245,3.1064,3.1062,3.106,0,0,0,0,0,0,3.1581,3.1568,3.1451,3.1501,3.1486,3.145,3.1421,3.1415,3.1393,3.135,3.1343,3.1382,3.1307,3.1294,3.1232,3.1205,3.1246,3.1241,3.1066,3.1064,3.1061,3.1053,0,0,0,0,0,0,3.1586,3.1569,3.1547,3.1501,3.1484,3.1401,3.1419,3.1412,3.1385,3.1386,3.1334,3.1327,3.1307,3.124,3.1227,3.1198,3.1237,3.1069,3.1065,3.1062,3.1056,3.1051,3.1047,0,0,0,0,0,3.1591,3.1546,3.1546,3.1532,3.1455,3.1399,3.1389,3.137,3.1383,3.1359,3.1332,3.1328,3.1211,3.1234,3.1219,3.1188,3.107,3.1066,3.1062,3.1058,3.1052,3.1047,0,0,0,0,0,0,3.1586,3.1539,3.1539,3.1478,3.1443,3.1398,3.1367,3.1364,3.1322,3.1324,3.1299,3.1287,3.1226,3.1201,3.1228,3.1124,3.1141,3.1134,3.1143,3.1137,3.1133,3.1139,3.1233,0,0,0,0,0,3.1578,3.1539,3.15,3.145,3.1433,3.1403,3.1378,3.1367,3.1328,3.1312,3.128,3.124,3.1194,3.1164,3.112,3.1053,3.104,3.1024,3.102,3.1016,3.101,3.0972,3.0964,3.1048,3.1048,3.1048,0,0,3.156,3.153,3.1507,3.1448,3.142,3.1378,3.1391,3.1345,3.1313,3.1304,3.1245,3.122,3.1174,3.1109,3.1079,3.1086,3.0984,3.1011,3.1009,3.1004,3.0967,3.0959,3.0952,3.1045,3.1046,3.1046,0,0,3.1507,3.1481,3.1437,3.1409,3.1368,3.1348,3.1338,3.1294,3.1278,3.1219,3.1212,3.1171,3.1093,3.1061,3.1034,3.097,3.0965,3.0956,3.0931,3.0894,3.0887,3.0881,3.0858,3.085,3.095,3.095,3.095,0,3.1489,3.1429,3.1414,3.1369,3.1343,3.1337,3.1291,3.1263,3.1207,3.1188,3.1198,3.11,3.1069,3.0996,3.0981,3.096,3.0945,3.0961,3.089,3.0884,3.0878,3.0855,3.0847,3.0949,3.0949,3.0949,3.0949,0,3.1409,3.1367,3.1336,3.1286,3.1256,3.1211,3.1186,3.1157,3.1149,3.1128,3.1067,3.103,3.0977,3.096,3.0949,3.0885,3.0891,3.0896,3.0912,3.087,3.0848,3.0839,3.0948,3.0948,3.0948,3.0948,0,0,3.1348,3.1293,3.1281,3.1259,3.1213,3.1179,3.1132,3.1085,3.106,3.1022,3.0981,3.0916,3.092,3.089,3.0876,3.0844,3.0795,3.0852,3.0851,3.0842,3.0722,3.0718,3.0708,3.0792,3.0791,3.0789,3.0725,0,3.1289,3.121,3.1196,3.1126,3.1086,3.108,3.104,3.1006,3.0985,3.0946,3.0922,3.0876,3.0886,3.0868,3.0836,3.0808,3.077,3.0812,3.0752,3.075,3.0763,3.0697,3.0693,3.0634,3.0717,3.0715,3.0714,0,3.1209,3.1173,3.11,3.1061,3.1043,3.1008,3.0963,3.0927,3.0887,3.0875,3.0842,3.0832,3.0781,3.0801,3.073,3.0759,3.0733,3.0716,3.0713,3.0706,3.0729,3.0687,3.0615,3.0606,3.0701,3.0702,3.0703,0,3.1171,3.1104,3.1052,3.1033,3.0986,3.0961,3.0939,3.0902,3.0874,3.0834,3.0816,3.0769,3.0743,3.0706,3.0683,3.07,3.0613,3.0631,3.0599,3.06,3.058,3.0581,3.0502,3.0565,3.0565,3.0565,3.0565,0,3.1106,3.1061,3.1035,3.1002,3.0952,3.0935,3.0884,3.0862,3.0829,3.0791,3.0782,3.0745,3.0718,3.0677,3.0658,3.0601,3.059,3.0576,3.0571,3.0576,3.0578,3.0558,3.0561,3.0563,3.0563,3.0564,3.0564,0,3.1055,3.1035,3.0978,3.0939,3.0928,3.0893,3.0858,3.0825,3.0805,3.0757,3.0744,3.0712,3.0663,3.0637,3.0575,3.0563,3.0499,3.0497,3.0513,3.0511,3.048,3.0483,3.0385,3.037,3.0444,3.0443,3.0442,0,3.1014,3.098,3.0939,3.0914,3.0894,3.0853,3.0826,3.0808,3.0779,3.0733,3.0705,3.0657,3.0617,3.0539,3.0508,3.0461,3.0457,3.0426,3.0449,3.0456,3.0456,3.0458,3.0454,3.0421,3.0421,3.042,3.042,0,3.0944,3.0936,3.09,3.0859,3.0828,3.0795,3.0761,3.0741,3.0716,3.0684,3.0637,3.0606,3.0545,3.0496,3.0447,3.0421,3.0415,3.0413,3.0403,3.0407,3.0418,3.0411,3.0501,3.0415,3.0415,3.0415,3.0416,3.0416,3.0895,3.0865,3.0832,3.0791,3.0765,3.0735,3.0703,3.0681,3.0641,3.0592,3.0583,3.0532,3.0493,3.0427,3.04,3.0358,3.0364,3.0349,3.0346,3.0342,3.0341,3.0426,3.0349,3.0349,3.0349,3.0349,3.0349,0,3.0824,3.0803,3.0766,3.0722,3.0689,3.0691,3.0654,3.0626,3.0583,3.0549,3.0511,3.0456,3.0409,3.0376,3.0327,3.03,3.0296,3.0288,3.0289,3.0283,3.0338,3.0352,3.0292,3.0292,3.0292,3.0292,3.0292,3.0292,3.0783,3.0733,3.0722,3.0657,3.0636,3.0589,3.0568,3.0539,3.0512,3.0452,3.0414,3.0394,3.036,3.0309,3.0266,3.0257,3.0239,3.0231,3.0222,3.0273,3.0279,3.0285,3.0298,3.0228,3.0227,3.017,3.017,3.0169]}]]